Regional Weather Roundup
Issued by NWS Wakefield, VA

Home | Current Version | Previous Version | Graphics & Text | Print | Product List | Glossary On
Versions: 1 2 3 4 5 6 7 8 9 10 11 12 13 14 15 16 17 18 19 20 21 22 23 24 25 26 27 28 29 30 31 32 33 34 35 36 37 38 39 40 41 42 43 44 45 46 47 48 49 50
000
ASUS41 KAKQ 030015
RWRAKQ

REGIONAL WEATHER ROUNDUP
NATIONAL WEATHER SERVICE WAKEFIELD VA
800 PM EDT TUE JUN 02 2015

Note: "fair" indicates few or no clouds below 12,000 feet with no
significant weather and/or obstructions to visibility. * = Denotes
station may not report precipitation (e.g., rain,snow,etc.),
thunder or fog.

VAZ042-051-052>054-056-030100-
NORTHERN VIRGINIA

CITY           SKY/WX    TMP DP  RH WIND       PRES   REMARKS
WASH NATIONAL  CLOUDY    62  56  80 NE9       30.11S
DULLES         CLOUDY    59  56  89 N9        30.10S
FORT BELVOIR   CLOUDY    61  57  88 VRB1      30.09F
QUANTICO       CLOUDY    60  56  86 N8        30.10S
FREDERICKSBRG* CLOUDY    62  62 100 N6        30.08S
STAFFORD*      CLOUDY    60  56  88 N7        30.12F
WARRENTON      CLOUDY    61  59  94 NE5       30.09F
CULPEPER*      CLOUDY    60  56  88 NE3       30.09F
MANASSAS*      CLOUDY    61  57  88 NE6       30.10R
LEESBURG*      CLOUDY    59  59 100 N7        30.12S
WINCHESTER     CLOUDY    61  59  94 NE3       30.11S
FRONT ROYAL*   CLOUDY    59  55  88 N3        30.11R
LURAY*         CLOUDY    61  61 100 N9        30.11R
$$

VAZ048-049-060>072-079>083-030100-
CENTRAL AND SOUTH CENTRAL VIRGINIA

CITY           SKY/WX    TMP DP  RH WIND       PRES   REMARKS
RICHMOND       CLOUDY    63  60  90 N9        30.05R
CHESTERFIELD*  NOT AVBL
PETERSBURG*    RAIN      66  66 100 NE10      30.04R
HANOVER        CLOUDY    61  59  93 N6        30.07S
TAPPAHANNOCK*  DRIZZLE   62  58  87 N5        30.06R
QUINTON*       CLOUDY    62  61  97 CALM      30.03S
CHARLOTTSVILLE CLOUDY    61  57  87 NE12      30.08R
GORDONSVILLE*  CLOUDY    61  57  88 NE9G16    30.08R
ORANGE*        DRIZZLE   61  59  94 N3        30.10R
LOUISA*        CLOUDY    61  59  94 NE6       30.07R FOG
BUMPASS*       CLOUDY    60  58  93 NE3       30.07S
FARMVILLE*     CLOUDY    65  64  96 NE8       30.04R
CREWE*         CLOUDY    64  61  92 N5        30.04R
FORT PICKETT*  CLOUDY    64  63  94 NE7G16    30.04R
CHASE CITY*    CLOUDY    70  69  97 N6        30.02R
CLARKSVILLE*   MOCLDY    72  66  83 NE8       29.99R
SOUTH HILL*    CLOUDY    67  64  90 N3        30.07R
LAWRENCEVILLE* CLOUDY    66  66 100 N5        30.00R
EMPORIA*       LGT RAIN  68  66  94 NW5       30.02R
$$

VAZ088>098-030100-
SOUTHEAST VIRGINIA

CITY           SKY/WX    TMP DP  RH WIND       PRES   REMARKS
NORFOLK        CLOUDY    66  63  90 E10       30.01R
VIRGINIA BEACH FOG       67  63  87 N12       30.00S VSB 1
NORFOLK NAVAL  CLOUDY    72  66  81 NE10      30.03R
WEST POINT*    CLOUDY    67  64  90 NE6       30.06R
SALUDA*        CLOUDY    64  62  95 N10G17    30.03S
NEWPORT NEWS   CLOUDY    73  67  81 NE8       30.02R
LANGLEY AFB    CLOUDY    68  66  94 NE10      30.01R
FORT EUSTIS    CLOUDY    70 N/A N/A NE6       30.00R
WILLIAMSBURG*  CLOUDY    72  72 100 CALM      30.02F
HR EXEC AP*    CLOUDY    70  66  88 NE5       30.03R
FRANKLIN*      LGT RAIN  69  68  96 NE8       30.00S
WAKEFIELD      RAIN      70  68  93 N3        30.01R FOG
$$

VAZ020-022-025-037-045-030100-
WEST CENTRAL AND SOUTHWEST VIRGINIA

CITY           SKY/WX    TMP DP  RH WIND       PRES   REMARKS
STAUNTON*      CLOUDY    62  58  87 NE7       30.11S
WAYNESBORO*    CLOUDY    59  58  98 NE3       30.10R
HOT SPRINGS VA RAIN      56  56 100 E12G18    30.11R VSB<1/4
LYNCHBURG      LGT RAIN  63  61  93 NE10      30.06R
DANVILLE       CLOUDY    75  67  76 E5        29.98R
SOUTH BOSTON*  CLOUDY    70  65  85 NE9G21    30.00R
MARTINSVILLE   CLOUDY    66  66 100 CALM      30.02S
ROANOKE        LGT RAIN  64  63  96 N8        30.05R FOG
BLACKSBURG     CLOUDY    64  61  91 E6        30.08S
DUBLIN*        CLOUDY    68  65  90 CALM      30.06S
MARION*        CLOUDY    63  61  93 E3        30.07F
HILLSVILLE*    CLOUDY    62  59  90 CALM      30.10R
RICHLANDS*     CLOUDY    61  61 100 NW3       30.05R
WISE*          FOG       59  59 100 NE3       30.08R VSB 3/4
ABINGDON*      MOCLDY    64  62  92 CALM      30.05R
$$

MDZ021>025-VAZ099-100-030100-
SOUTHERN MARYLAND AND THE DELMARVA PENINSULA

CITY           SKY/WX    TMP DP  RH WIND       PRES   REMARKS
PATUXENT RIVER LGT RAIN  60  58  92 N13       30.07R
BAY BRIDGE APT RAIN     N/A N/A N/A NE5       30.10S
LEONARDTOWN    CLOUDY    59  55  88 CALM      30.08S
DOVER          CLOUDY    57  57 100 NE12      30.08R
GEORGETOWN     LGT RAIN  57  55  93 NE14      30.09S
EASTON         CLOUDY    59  59 100 NE9       30.13R
CAMBRIDGE      CLOUDY    59  55  88 N7        30.07R
SALISBURY      LGT RAIN  56  55  97 NE10      30.07R
OCEAN CITY     LGT RAIN  57  55  93 NE15      30.06F
WALLOPS ISLAND LGT RAIN  60  60 100 NE20G28   30.04S
ACCOMACK*      DRIZZLE   61  61 100 NE14G21   30.02S
$$

NCZ012>017-030>032-030100-
NORTH CENTRAL AND EASTERN NORTH CAROLINA

CITY           SKY/WX    TMP DP  RH WIND       PRES   REMARKS
ROANOKE RAPIDS MOCLDY    72  66  83 NE7       29.99R
RALEIGH        LGT RAIN  75  67  76 S7        29.98R
ELIZABETH CITY CLOUDY    71  69  93 CALM      29.99S
AHOSKIE*       HVY RAIN  69  67  96 CALM      30.00R
EDENTON*       CLOUDY    71  67  89 CALM      29.99R
CURRITUCK*     CLOUDY    70  68  93 CALM      29.99S
KILL DEVIL HLS   N/A     70  68  95 CALM      29.99R
MANTEO         CLOUDY    70  67  90 CALM      30.00R
CAPE HATTERAS  PTCLDY    77  67  71 CALM      29.99S
TARBORO*       LGT RAIN  72  69  90 CALM      30.00R
GOLDSBORO      CLOUDY    73  71  95 CALM      29.97R
WASHINGTON     LGT RAIN  72  70  93 CALM      29.99R
GREENVILLE     CLOUDY    72  70  94 SW3       30.01R
NEW BERN       LGT RAIN  73  70  90 E5        29.99F
WILMINGTON     MOCLDY    78  71  79 VRB6      29.97R
$$

VAZ048-030100-
ELSEWHERE

CITY           SKY/WX    TMP DP  RH WIND       PRES   REMARKS
HARRISBURG PA  LGT RAIN  60  56  86 NE3       30.12S
BALTIMORE      CLOUDY    58  55  90 NE8       30.11R
ANNAPOLIS      CLOUDY    59  59 100 NE6       30.10R
ANDREWS AFB    CLOUDY    58  58  99 NE7       30.09S
PHILADELPHIA   LGT RAIN  57  53  86 E9G20     30.13S
HENDERSON NC   HVY RAIN  69  64  86 NE12      29.99S
GREENSBORO     LGT RAIN  72  61  68 N10       29.98R
ROCKY MOUNT    CLOUDY    72  68  87 CALM      29.98S
$$

VAZ100-030100-
MARINE

STATION/POSITION TIME  TEMP    WIND        PRES    WAVE   SWELL
                       AIR SEA DIR/SP/G            HT/PER HT/PER
                 (UTC) (F)     (DEG/KT/KT) (MB)    (FT/S) (FT/S)
BRANDYWINE LGT   2300   57 65   70/ 17/ 19 1019.4R
CAPE MAY NJ      2300   56 66   50/  7/ 10 1019.0R
LEWES DE         2300   57 65   70/ 17/ 20 1019.1R
15NM E FENWICK I 2350   61 65              1017.7R   7/ 7
OCEAN-CITY-INLET 2300   57 56   30/  9/ 14 1018.5R
WACHAPREAGUE VA  2300   63 74   40/ 20/ 25 1016.4F
THOMAS POINT MD  0000   59 72   60/ 12/ 13 1019.9R
GOOSES REEF MD   0000   61 72   50/ 16/ 17 1019.7R   2/ 3
COVE POINT MD    2300   59      40/ 15/ 19 1018.8F
SOLOMONS ISLAND  2300      72                N/A
BISHOPS HEAD MD  2300   60 74   50/ 15/ 20 1016.8F
PINEY POINT MD   2300           40/  8/ 11   N/A
CAMBRIDGE MD     2300   59 75   40/ 12/ 15 1018.1F
LEWISETTA VA     2300   64 74              1017.1R
RAPPAHANNOCK LGT 2300           50/ 14/ 15 1016.5F
STINGRAY PT      0000   67 74   50/ 16/ 19 1016.2R   3/ 3
YORK RVR RNG VA  2300   70      80/ 18/ 20 1015.3R
YORKTOWN VA      2300   70 75   50/ 11/ 13 1015.6R
JAMESTOWN VA     0000   69 80   50/  6/  8   N/A
DOMINION TERM VA 2300   71      60/  9/ 13 1015.9R
KIPTOPEKE VA     2300      76   60/ 14/ 18   N/A
CHES BAY BRIDGE  2300   66 69   30/ 19/ 22 1015.3R
CAPE HENRY VA    2300   63      30/ 19/ 21 1014.6R
CHESAPEAKE LGHT  2300   68      30/ 13/ 14 1016.2R
WILLOUBY STN VA  2300   69      60/ 13/ 14 1016.5R
CAPE HENRY BUOY  2328      66                N/A     3/ 8
1ST LANDING BUOY 0000      68              1016.0R
CAPE CHARLES BUO 2326      66                N/A     4/ 8   2/ 8
OFFSHORE WE BUOY 2311      70                N/A     3/ 8   3/ 8
64NM E OF VA BCH 2350   72 73  260/  6/  8 1014.9F   3/ 7   3/ 7
DUCK PIER NC     2300   68 57  100/  6/  8 1014.2F
44100 DUCK FRF   2324      73                N/A     3/ 8
44056 DUCK FRF   2341      65                N/A     2/ 8
OREGON INLET NC  2300   71 82   20/  6/  8 1015.6F
HATTERAS NC      2300   76 79  360/  7/  9 1015.1F
DIAMOND SHLS NC  2350   78 82  210/  8/  8 1015.5F   2/ 8   2/ 8
CAPE LOOKOUT NC  0000   77     170/  4/  5 1015.3R
$$



USA.gov is the U.S. government's official web portal to all federal, state and local government web resources and services.